Location: Newark
(13.8117°N, 3.6025°W)
Time: 01:14:24
(UTC+00:00)

Vanguard 2 - Pass Details

Date: 01 September 2019
Orbit: 554 x 2937 km, 32.9° (Epoch: 19 September)

Event Time Altitude Azimuth Distance (km) Brightness Sun altitude
Rises 16:34:35 0° 298° (WNW) 4,063 12.3 26.1°
Reaches altitude 10° 16:36:54 10° 296° (WNW) 3,344 12.1 25.5°
Maximum altitude 16:45:45 74° 213° (SSW) 1,928 10.1 23.4°
Drops below altitude 10° 17:00:34 10° 130° (SE) 5,330 11.4 19.8°
Sets 17:05:20 0° 129° (SE) 6,564 11.8 18.6°
